Time,TemperatureF,DewpointF,PressureIn,WindDirection,WindDirectionDegrees,WindSpeedMPH,WindSpeedGustMPH,Humidity,HourlyPrecipIn,Conditions,Clouds,dailyrainin,SolarRadiationWatts/m^2,SoftwareType,DateUTC
2013-08-22 00:02:00,70.3,67.9,30.09,SSW,198,0.0,0.0,92,0.00,,,0.00,0,Wunderground v.1.15,2013-08-22 04:02:00,
2013-08-22 00:03:00,70.3,67.9,30.09,SSW,198,0.0,0.0,92,0.00,,,0.00,0,Wunderground v.1.15,2013-08-22 04:03:00,
2013-08-22 00:08:00,70.3,67.9,30.09,SSW,198,0.0,0.0,92,0.00,,,0.00,0,Wunderground v.1.15,2013-08-22 04:08:00,
2013-08-22 00:13:00,70.4,68.0,30.10,SSW,198,0.0,0.0,92,0.00,,,0.00,0,Wunderground v.1.15,2013-08-22 04:13:00,
2013-08-22 00:18:00,70.5,68.1,30.10,SSW,198,0.0,0.0,92,0.00,,,0.00,0,Wunderground v.1.15,2013-08-22 04:18:00,
2013-08-22 00:23:00,70.5,68.1,30.10,SSW,198,0.0,0.0,92,0.00,,,0.00,0,Wunderground v.1.15,2013-08-22 04:23:00,
2013-08-22 00:28:00,70.4,68.0,30.09,SSW,198,0.0,0.0,92,0.00,,,0.00,0,Wunderground v.1.15,2013-08-22 04:28:00,
2013-08-22 00:33:00,70.3,67.9,30.10,SSW,198,0.0,0.0,92,0.00,,,0.00,0,Wunderground v.1.15,2013-08-22 04:33:00,
2013-08-22 00:38:00,70.1,67.7,30.10,SSW,198,0.0,0.0,92,0.00,,,0.00,0,Wunderground v.1.15,2013-08-22 04:38:00,
2013-08-22 00:44:00,70.0,67.9,30.10,SSW,198,0.0,0.0,93,0.00,,,0.00,0,Wunderground v.1.15,2013-08-22 04:44:00,
2013-08-22 00:49:00,70.1,68.0,30.10,SSW,198,0.0,0.0,93,0.00,,,0.00,0,Wunderground v.1.15,2013-08-22 04:49:00,
2013-08-22 00:54:00,70.1,68.0,30.10,SSW,198,0.0,1.0,93,0.00,,,0.00,0,Wunderground v.1.15,2013-08-22 04:54:00,
2013-08-22 00:59:00,70.1,68.0,30.09,SSW,198,0.0,1.0,93,0.00,,,0.00,0,Wunderground v.1.15,2013-08-22 04:59:00,
2013-08-22 01:04:00,70.2,68.1,30.10,SSW,198,0.0,1.0,93,0.00,,,0.00,0,Wunderground v.1.15,2013-08-22 05:04:00,
2013-08-22 01:09:00,70.2,68.1,30.10,SSW,198,2.0,2.0,93,0.00,,,0.00,0,Wunderground v.1.15,2013-08-22 05:09:00,
2013-08-22 01:14:00,70.2,68.1,30.10,SSW,198,0.0,2.0,93,0.00,,,0.00,0,Wunderground v.1.15,2013-08-22 05:14:00,
2013-08-22 01:19:00,70.2,68.1,30.10,SSW,198,0.0,1.0,93,0.00,,,0.00,0,Wunderground v.1.15,2013-08-22 05:19:00,
2013-08-22 01:24:00,70.2,68.1,30.10,SSW,198,2.0,3.0,93,0.00,,,0.00,0,Wunderground v.1.15,2013-08-22 05:24:00,
2013-08-22 01:29:00,70.4,68.3,30.09,SSW,198,1.0,1.0,93,0.00,,,0.00,0,Wunderground v.1.15,2013-08-22 05:29:00,
2013-08-22 01:34:00,70.4,68.3,30.10,SSW,198,0.0,3.0,93,0.00,,,0.00,0,Wunderground v.1.15,2013-08-22 05:34:00,
2013-08-22 01:39:00,70.4,68.3,30.10,SSW,198,1.0,1.0,93,0.00,,,0.00,0,Wunderground v.1.15,2013-08-22 05:39:00,
2013-08-22 01:44:00,70.5,68.4,30.09,SSW,198,0.0,2.0,93,0.00,,,0.00,0,Wunderground v.1.15,2013-08-22 05:44:00,
2013-08-22 01:49:00,70.5,68.4,30.09,SSW,198,2.0,2.0,93,0.00,,,0.00,0,Wunderground v.1.15,2013-08-22 05:49:00,
2013-08-22 01:54:00,70.7,68.6,30.09,SSW,198,3.0,4.0,93,0.00,,,0.00,0,Wunderground v.1.15,2013-08-22 05:54:00,
2013-08-22 01:59:00,70.8,68.7,30.09,SSW,199,1.0,2.0,93,0.00,,,0.00,0,Wunderground v.1.15,2013-08-22 05:59:00,
2013-08-22 02:04:00,70.8,68.7,30.09,SSW,199,2.0,3.0,93,0.00,,,0.00,0,Wunderground v.1.15,2013-08-22 06:04:00,
2013-08-22 02:09:00,70.9,68.8,30.08,SSW,200,2.0,3.0,93,0.00,,,0.00,0,Wunderground v.1.15,2013-08-22 06:09:00,
2013-08-22 02:14:00,70.9,68.8,30.08,SSW,200,1.0,3.0,93,0.00,,,0.00,0,Wunderground v.1.15,2013-08-22 06:14:00,
2013-08-22 02:19:00,70.9,68.8,30.08,SSW,200,0.0,2.0,93,0.00,,,0.00,0,Wunderground v.1.15,2013-08-22 06:19:00,
2013-08-22 02:24:00,70.5,68.1,30.07,SSW,200,0.0,2.0,92,0.00,,,0.00,0,Wunderground v.1.15,2013-08-22 06:24:00,
2013-08-22 02:29:00,70.2,68.1,30.07,SSW,200,0.0,0.0,93,0.00,,,0.00,0,Wunderground v.1.15,2013-08-22 06:29:00,
2013-08-22 02:34:00,70.1,68.0,30.07,SSW,200,1.0,2.0,93,0.00,,,0.00,0,Wunderground v.1.15,2013-08-22 06:34:00,
2013-08-22 02:39:00,70.0,67.9,30.08,SSW,200,1.0,1.0,93,0.00,,,0.00,0,Wunderground v.1.15,2013-08-22 06:39:00,
2013-08-22 02:44:00,69.9,67.8,30.07,SSW,200,0.0,1.0,93,0.00,,,0.00,0,Wunderground v.1.15,2013-08-22 06:44:00,
2013-08-22 02:49:00,69.8,67.7,30.07,SSW,200,0.0,1.0,93,0.00,,,0.00,0,Wunderground v.1.15,2013-08-22 06:49:00,
2013-08-22 02:54:00,69.7,67.6,30.08,SSW,200,0.0,1.0,93,0.00,,,0.00,0,Wunderground v.1.15,2013-08-22 06:54:00,
2013-08-22 02:59:00,69.6,67.8,30.07,SSW,200,0.0,0.0,94,0.00,,,0.00,0,Wunderground v.1.15,2013-08-22 06:59:00,
2013-08-22 03:04:00,69.6,67.8,30.08,SSW,200,0.0,1.0,94,0.00,,,0.00,0,Wunderground v.1.15,2013-08-22 07:04:00,
2013-08-22 03:09:00,69.6,67.8,30.08,SSW,200,3.0,3.0,94,0.00,,,0.00,0,Wunderground v.1.15,2013-08-22 07:09:00,
2013-08-22 03:14:00,69.7,67.9,30.08,SSW,201,1.0,3.0,94,0.00,,,0.00,0,Wunderground v.1.15,2013-08-22 07:14:00,
2013-08-22 03:19:00,69.8,68.0,30.08,SSW,201,0.0,1.0,94,0.00,,,0.00,0,Wunderground v.1.15,2013-08-22 07:19:00,
2013-08-22 03:24:00,69.8,68.0,30.08,SSW,201,0.0,1.0,94,0.00,,,0.00,0,Wunderground v.1.15,2013-08-22 07:24:00,
2013-08-22 03:29:00,69.7,67.9,30.07,SSW,201,0.0,1.0,94,0.00,,,0.00,0,Wunderground v.1.15,2013-08-22 07:29:00,
2013-08-22 03:34:00,69.6,67.8,30.07,SSW,201,0.0,2.0,94,0.00,,,0.00,0,Wunderground v.1.15,2013-08-22 07:34:00,
2013-08-22 03:39:00,69.7,67.9,30.07,SSW,201,1.0,3.0,94,0.00,,,0.00,0,Wunderground v.1.15,2013-08-22 07:39:00,
2013-08-22 03:44:00,69.8,68.3,30.07,SSW,201,0.0,3.0,95,0.00,,,0.00,0,Wunderground v.1.15,2013-08-22 07:44:00,
2013-08-22 03:49:00,69.8,68.3,30.07,SSW,201,1.0,1.0,95,0.00,,,0.00,0,Wunderground v.1.15,2013-08-22 07:49:00,
2013-08-22 03:54:00,69.8,68.0,30.08,SSW,201,0.0,3.0,94,0.00,,,0.00,0,Wunderground v.1.15,2013-08-22 07:54:00,
2013-08-22 03:59:00,69.7,67.9,30.07,SSW,201,0.0,0.0,94,0.00,,,0.00,0,Wunderground v.1.15,2013-08-22 07:59:00,
2013-08-22 04:04:00,69.5,67.7,30.07,SSW,201,0.0,1.0,94,0.00,,,0.00,0,Wunderground v.1.15,2013-08-22 08:04:00,
2013-08-22 04:09:00,69.4,67.6,30.08,SSW,201,0.0,2.0,94,0.00,,,0.00,0,Wunderground v.1.15,2013-08-22 08:09:00,
2013-08-22 04:14:00,69.2,67.4,30.08,SSW,201,1.0,2.0,94,0.00,,,0.00,0,Wunderground v.1.15,2013-08-22 08:14:00,
2013-08-22 04:19:00,69.3,67.8,30.08,SSW,201,1.0,2.0,95,0.00,,,0.00,0,Wunderground v.1.15,2013-08-22 08:19:00,
2013-08-22 04:24:00,69.3,67.8,30.08,SSW,201,0.0,2.0,95,0.00,,,0.00,0,Wunderground v.1.15,2013-08-22 08:24:00,
2013-08-22 04:29:00,69.2,67.7,30.08,SSW,201,0.0,1.0,95,0.00,,,0.00,0,Wunderground v.1.15,2013-08-22 08:29:00,
2013-08-22 04:34:00,69.3,67.8,30.08,SSW,201,0.0,1.0,95,0.00,,,0.00,0,Wunderground v.1.15,2013-08-22 08:34:00,
2013-08-22 04:39:00,69.3,67.8,30.08,SSW,201,0.0,1.0,95,0.00,,,0.00,0,Wunderground v.1.15,2013-08-22 08:39:00,
2013-08-22 04:44:00,69.3,67.8,30.08,SSW,201,0.0,1.0,95,0.00,,,0.00,0,Wunderground v.1.15,2013-08-22 08:44:00,
2013-08-22 04:49:00,69.2,67.7,30.08,SSW,201,0.0,0.0,95,0.00,,,0.00,0,Wunderground v.1.15,2013-08-22 08:49:00,
2013-08-22 04:54:00,69.0,67.5,30.08,SSW,201,0.0,1.0,95,0.00,,,0.00,0,Wunderground v.1.15,2013-08-22 08:54:00,
2013-08-22 04:59:00,68.7,67.2,30.08,SSW,201,0.0,0.0,95,0.00,,,0.00,0,Wunderground v.1.15,2013-08-22 08:59:00,
2013-08-22 05:04:00,68.7,67.2,30.08,SSW,201,0.0,0.0,95,0.00,,,0.00,0,Wunderground v.1.15,2013-08-22 09:04:00,
2013-08-22 05:09:00,68.7,67.2,30.07,SSW,201,0.0,0.0,95,0.00,,,0.00,0,Wunderground v.1.15,2013-08-22 09:09:00,
2013-08-22 05:14:00,68.8,67.3,30.07,SSW,201,0.0,0.0,95,0.00,,,0.00,0,Wunderground v.1.15,2013-08-22 09:14:00,
2013-08-22 05:19:00,68.8,67.3,30.07,SSW,201,0.0,0.0,95,0.00,,,0.00,0,Wunderground v.1.15,2013-08-22 09:19:00,
2013-08-22 05:24:00,68.8,67.3,30.07,SSW,201,0.0,0.0,95,0.00,,,0.00,0,Wunderground v.1.15,2013-08-22 09:24:00,
2013-08-22 05:30:00,68.7,67.2,30.08,SSW,201,0.0,0.0,95,0.00,,,0.00,0,Wunderground v.1.15,2013-08-22 09:30:00,
2013-08-22 05:35:00,68.9,67.7,30.08,SSW,201,0.0,0.0,96,0.00,,,0.00,0,Wunderground v.1.15,2013-08-22 09:35:00,
2013-08-22 05:40:00,68.8,67.3,30.08,SSW,201,0.0,0.0,95,0.00,,,0.00,0,Wunderground v.1.15,2013-08-22 09:40:00,
2013-08-22 05:45:00,68.5,67.0,30.08,SSW,201,0.0,0.0,95,0.00,,,0.00,0,Wunderground v.1.15,2013-08-22 09:45:00,
2013-08-22 05:50:00,68.4,66.9,30.08,SSW,201,0.0,0.0,95,0.00,,,0.00,0,Wunderground v.1.15,2013-08-22 09:50:00,
2013-08-22 05:55:00,68.4,67.2,30.08,SSW,201,0.0,2.0,96,0.00,,,0.00,0,Wunderground v.1.15,2013-08-22 09:55:00,
2013-08-22 06:00:00,68.4,67.2,30.08,SSW,201,0.0,0.0,96,0.00,,,0.00,0,Wunderground v.1.15,2013-08-22 10:00:00,
2013-08-22 06:05:00,68.3,67.1,30.08,SSW,201,0.0,0.0,96,0.00,,,0.00,0,Wunderground v.1.15,2013-08-22 10:05:00,
2013-08-22 06:10:00,68.4,67.2,30.08,SSW,201,0.0,0.0,96,0.00,,,0.00,0,Wunderground v.1.15,2013-08-22 10:10:00,
2013-08-22 06:15:00,68.5,67.3,30.08,SSW,201,0.0,0.0,96,0.00,,,0.00,0,Wunderground v.1.15,2013-08-22 10:15:00,
2013-08-22 06:20:00,68.5,67.3,30.08,SSW,201,0.0,0.0,96,0.00,,,0.00,0,Wunderground v.1.15,2013-08-22 10:20:00,
2013-08-22 06:25:00,68.3,67.1,30.08,SSW,201,0.0,1.0,96,0.00,,,0.00,0,Wunderground v.1.15,2013-08-22 10:25:00,
2013-08-22 06:30:00,68.7,67.5,30.08,SSW,201,0.0,2.0,96,0.00,,,0.00,0,Wunderground v.1.15,2013-08-22 10:30:00,
2013-08-22 06:35:00,69.2,68.0,30.08,SSW,201,2.0,3.0,96,0.00,,,0.00,0,Wunderground v.1.15,2013-08-22 10:35:00,
2013-08-22 06:40:00,69.4,68.2,30.08,SSW,202,0.0,3.0,96,0.00,,,0.00,0,Wunderground v.1.15,2013-08-22 10:40:00,
2013-08-22 06:45:00,69.6,68.4,30.09,SSW,207,1.0,4.0,96,0.00,,,0.00,0,Wunderground v.1.15,2013-08-22 10:45:00,
2013-08-22 06:50:00,69.7,68.5,30.09,SW,224,2.0,4.0,96,0.00,,,0.00,0,Wunderground v.1.15,2013-08-22 10:50:00,
2013-08-22 08:27:00,71.1,69.9,30.09,WSW,249,4.0,6.0,96,0.00,,,0.00,113,Wunderground v.1.15,2013-08-22 12:27:00,
2013-08-22 08:32:00,71.2,70.0,30.10,West,267,7.0,7.0,96,0.00,,,0.00,97,Wunderground v.1.15,2013-08-22 12:32:00,
2013-08-22 08:37:00,71.3,70.1,30.10,West,277,2.0,7.0,96,0.00,,,0.00,113,Wunderground v.1.15,2013-08-22 12:37:00,
2013-08-22 08:42:00,71.5,70.3,30.10,WSW,256,4.0,7.0,96,0.00,,,0.00,105,Wunderground v.1.15,2013-08-22 12:42:00,
2013-08-22 08:47:00,71.7,70.5,30.10,WNW,283,4.0,7.0,96,0.00,,,0.00,172,Wunderground v.1.15,2013-08-22 12:47:00,
2013-08-22 08:52:00,71.9,70.7,30.10,West,263,3.0,6.0,96,0.00,,,0.00,132,Wunderground v.1.15,2013-08-22 12:52:00,
2013-08-22 08:57:00,72.2,71.0,30.09,West,265,5.0,7.0,96,0.00,,,0.00,98,Wunderground v.1.15,2013-08-22 12:57:00,
2013-08-22 09:00:00,72.2,71.0,30.09,WNW,286,3.0,5.0,96,0.00,,,0.00,137,Wunderground v.1.15,2013-08-22 13:00:00,
2013-08-22 09:05:00,72.5,71.3,30.09,West,276,5.0,6.0,96,0.00,,,0.00,128,Wunderground v.1.15,2013-08-22 13:05:00,
2013-08-22 09:10:00,72.7,71.5,30.09,West,275,1.0,5.0,96,0.00,,,0.00,141,Wunderground v.1.15,2013-08-22 13:10:00,
2013-08-22 09:15:00,73.0,71.8,30.09,WNW,294,0.0,6.0,96,0.00,,,0.00,163,Wunderground v.1.15,2013-08-22 13:15:00,
2013-08-22 09:20:00,73.1,71.6,30.09,WNW,284,1.0,8.0,95,0.00,,,0.00,199,Wunderground v.1.15,2013-08-22 13:20:00,
2013-08-22 09:25:00,73.3,71.5,30.09,WNW,292,1.0,8.0,94,0.00,,,0.00,206,Wunderground v.1.15,2013-08-22 13:25:00,
2013-08-22 09:30:00,73.4,71.6,30.09,West,267,4.0,7.0,94,0.00,,,0.00,236,Wunderground v.1.15,2013-08-22 13:30:00,
2013-08-22 09:35:00,73.5,71.7,30.09,West,271,3.0,8.0,94,0.00,,,0.00,209,Wunderground v.1.15,2013-08-22 13:35:00,
2013-08-22 09:40:00,73.7,71.9,30.09,West,269,2.0,7.0,94,0.00,,,0.00,232,Wunderground v.1.15,2013-08-22 13:40:00,
2013-08-22 09:45:00,74.2,72.0,30.09,West,269,4.0,7.0,93,0.00,,,0.00,223,Wunderground v.1.15,2013-08-22 13:45:00,
2013-08-22 09:50:00,74.5,72.3,30.09,West,277,4.0,5.0,93,0.00,,,0.00,378,Wunderground v.1.15,2013-08-22 13:50:00,
2013-08-22 09:55:00,74.9,72.1,30.09,West,268,6.0,6.0,91,0.00,,,0.00,559,Wunderground v.1.15,2013-08-22 13:55:00,
2013-08-22 10:00:00,75.5,72.4,30.09,West,271,2.0,5.0,90,0.00,,,0.00,241,Wunderground v.1.15,2013-08-22 14:00:00,
2013-08-22 10:05:00,76.1,72.6,30.09,WSW,256,3.0,6.0,89,0.00,,,0.00,517,Wunderground v.1.15,2013-08-22 14:05:00,
2013-08-22 10:10:00,76.6,72.8,30.09,WSW,245,4.0,5.0,88,0.00,,,0.00,538,Wunderground v.1.15,2013-08-22 14:10:00,
2013-08-22 10:15:00,77.4,72.9,30.09,West,263,3.0,7.0,86,0.00,,,0.00,555,Wunderground v.1.15,2013-08-22 14:15:00,
2013-08-22 10:20:00,77.9,73.0,30.09,WSW,248,4.0,6.0,85,0.00,,,0.00,563,Wunderground v.1.15,2013-08-22 14:20:00,
2013-08-22 10:25:00,78.1,72.9,30.08,WSW,248,4.0,8.0,84,0.00,,,0.00,575,Wunderground v.1.15,2013-08-22 14:25:00,
2013-08-22 10:30:00,78.6,73.7,30.08,WSW,246,3.0,6.0,85,0.00,,,0.00,580,Wunderground v.1.15,2013-08-22 14:30:00,
2013-08-22 10:35:00,79.3,73.7,30.08,SW,222,4.0,7.0,83,0.00,,,0.00,603,Wunderground v.1.15,2013-08-22 14:35:00,
2013-08-22 10:40:00,80.2,74.2,30.08,WSW,242,7.0,7.0,82,0.00,,,0.00,610,Wunderground v.1.15,2013-08-22 14:40:00,
2013-08-22 10:45:00,80.7,74.0,30.07,SW,234,3.0,7.0,80,0.00,,,0.00,635,Wunderground v.1.15,2013-08-22 14:45:00,
2013-08-22 10:50:00,80.9,73.8,30.08,WSW,240,2.0,6.0,79,0.00,,,0.00,650,Wunderground v.1.15,2013-08-22 14:50:00,
2013-08-22 10:55:00,81.3,73.4,30.08,WNW,294,5.0,8.0,77,0.00,,,0.00,636,Wunderground v.1.15,2013-08-22 14:55:00,
2013-08-22 11:01:00,81.2,73.7,30.08,WNW,301,2.0,6.0,78,0.00,,,0.00,694,Wunderground v.1.15,2013-08-22 15:01:00,
2013-08-22 11:06:00,82.1,73.8,30.08,WSW,249,6.0,6.0,76,0.00,,,0.00,664,Wunderground v.1.15,2013-08-22 15:06:00,
2013-08-22 11:11:00,82.7,74.0,30.08,WSW,244,6.0,6.0,75,0.00,,,0.00,677,Wunderground v.1.15,2013-08-22 15:11:00,
2013-08-22 11:16:00,82.9,74.6,30.08,West,278,2.0,6.0,76,0.00,,,0.00,675,Wunderground v.1.15,2013-08-22 15:16:00,
2013-08-22 11:21:00,83.6,74.4,30.09,NW,319,4.0,4.0,74,0.00,,,0.00,612,Wunderground v.1.15,2013-08-22 15:21:00,
2013-08-22 11:26:00,83.3,74.5,30.09,NNE,15,2.0,5.0,75,0.00,,,0.00,601,Wunderground v.1.15,2013-08-22 15:26:00,
2013-08-22 11:31:00,82.3,73.6,30.09,NNE,17,1.0,4.0,75,0.00,,,0.00,638,Wunderground v.1.15,2013-08-22 15:31:00,
2013-08-22 11:36:00,82.6,73.5,30.09,West,271,4.0,6.0,74,0.00,,,0.00,670,Wunderground v.1.15,2013-08-22 15:36:00,
2013-08-22 11:41:00,82.9,73.4,30.09,NW,306,3.0,6.0,73,0.00,,,0.00,323,Wunderground v.1.15,2013-08-22 15:41:00,
2013-08-22 11:46:00,83.3,73.3,30.09,NW,311,3.0,6.0,72,0.00,,,0.00,338,Wunderground v.1.15,2013-08-22 15:46:00,
2013-08-22 11:51:00,84.0,73.2,30.09,NW,313,1.0,3.0,70,0.00,,,0.00,742,Wunderground v.1.15,2013-08-22 15:51:00,
2013-08-22 11:56:00,84.6,72.4,30.09,WNW,292,0.0,6.0,67,0.00,,,0.00,276,Wunderground v.1.15,2013-08-22 15:56:00,
2013-08-22 12:01:00,84.7,73.0,30.09,NW,306,3.0,6.0,68,0.00,,,0.00,775,Wunderground v.1.15,2013-08-22 16:01:00,
2013-08-22 12:06:00,85.0,73.3,30.09,NNW,347,2.0,7.0,68,0.00,,,0.00,835,Wunderground v.1.15,2013-08-22 16:06:00,
2013-08-22 12:11:00,84.6,73.3,30.09,NW,314,3.0,6.0,69,0.00,,,0.00,309,Wunderground v.1.15,2013-08-22 16:11:00,
2013-08-22 12:16:00,84.1,72.0,30.09,West,281,4.0,9.0,67,0.00,,,0.00,439,Wunderground v.1.15,2013-08-22 16:16:00,
2013-08-22 12:21:00,84.1,72.4,30.08,NW,308,4.0,6.0,68,0.00,,,0.00,225,Wunderground v.1.15,2013-08-22 16:21:00,
2013-08-22 12:26:00,83.6,72.3,30.08,NW,306,4.0,8.0,69,0.00,,,0.00,229,Wunderground v.1.15,2013-08-22 16:26:00,
2013-08-22 12:31:00,83.3,72.5,30.08,WNW,300,7.0,7.0,70,0.00,,,0.00,236,Wunderground v.1.15,2013-08-22 16:31:00,
2013-08-22 12:36:00,83.3,72.5,30.08,WNW,299,4.0,7.0,70,0.00,,,0.00,309,Wunderground v.1.15,2013-08-22 16:36:00,
2013-08-22 12:41:00,84.2,72.9,30.08,NW,317,3.0,7.0,69,0.00,,,0.00,949,Wunderground v.1.15,2013-08-22 16:41:00,
2013-08-22 12:46:00,84.8,71.3,30.08,West,278,4.0,7.0,64,0.00,,,0.00,969,Wunderground v.1.15,2013-08-22 16:46:00,
2013-08-22 12:51:00,85.3,72.6,30.08,NW,305,6.0,7.0,66,0.00,,,0.00,311,Wunderground v.1.15,2013-08-22 16:51:00,
2013-08-22 12:56:00,85.1,71.1,30.08,WNW,290,4.0,7.0,63,0.00,,,0.00,211,Wunderground v.1.15,2013-08-22 16:56:00,
2013-08-22 13:01:00,84.4,72.2,30.07,NW,304,7.0,7.0,67,0.00,,,0.00,149,Wunderground v.1.15,2013-08-22 17:01:00,
2013-08-22 13:06:00,83.2,72.0,30.07,NW,324,5.0,8.0,69,0.00,,,0.00,188,Wunderground v.1.15,2013-08-22 17:06:00,
2013-08-22 13:11:00,83.5,71.8,30.07,NW,319,2.0,7.0,68,0.00,,,0.00,865,Wunderground v.1.15,2013-08-22 17:11:00,
2013-08-22 13:16:00,84.8,71.3,30.07,WNW,294,0.0,7.0,64,0.00,,,0.00,916,Wunderground v.1.15,2013-08-22 17:16:00,
2013-08-22 13:21:00,85.5,72.8,30.07,NW,325,2.0,5.0,66,0.00,,,0.00,962,Wunderground v.1.15,2013-08-22 17:21:00,
2013-08-22 13:26:00,85.9,73.2,30.07,North,9,0.0,6.0,66,0.00,,,0.00,962,Wunderground v.1.15,2013-08-22 17:26:00,
2013-08-22 13:31:00,85.4,72.3,30.06,WNW,294,3.0,4.0,65,0.00,,,0.00,272,Wunderground v.1.15,2013-08-22 17:31:00,
2013-08-22 13:36:00,85.5,71.9,30.07,NW,313,2.0,5.0,64,0.00,,,0.00,404,Wunderground v.1.15,2013-08-22 17:36:00,
2013-08-22 13:41:00,85.7,71.7,30.06,NNE,24,4.0,6.0,63,0.00,,,0.00,1016,Wunderground v.1.15,2013-08-22 17:41:00,
2013-08-22 13:46:00,86.2,71.2,30.06,NW,325,6.0,8.0,61,0.00,,,0.00,374,Wunderground v.1.15,2013-08-22 17:46:00,
2013-08-22 13:51:00,85.7,71.7,30.07,NNW,331,19.0,22.0,63,0.00,,,0.00,134,Wunderground v.1.15,2013-08-22 17:51:00,
2013-08-22 13:56:00,80.4,69.7,30.09,NW,313,14.0,28.0,70,0.00,,,0.00,77,Wunderground v.1.15,2013-08-22 17:56:00,
2013-08-22 14:01:00,77.0,68.5,30.09,West,280,7.0,16.0,75,0.00,,,0.00,86,Wunderground v.1.15,2013-08-22 18:01:00,
2013-08-22 14:06:00,74.9,68.3,30.08,West,261,1.0,16.0,80,0.00,,,0.00,132,Wunderground v.1.15,2013-08-22 18:06:00,
2013-08-22 14:11:00,74.1,69.6,30.07,South,169,3.0,6.0,86,0.00,,,0.00,179,Wunderground v.1.15,2013-08-22 18:11:00,
2013-08-22 14:16:00,74.1,69.3,30.07,South,182,0.0,6.0,85,0.00,,,0.00,260,Wunderground v.1.15,2013-08-22 18:16:00,
2013-08-22 14:21:00,74.9,70.4,30.06,SSW,200,0.0,2.0,86,0.00,,,0.00,411,Wunderground v.1.15,2013-08-22 18:21:00,
2013-08-22 14:26:00,76.7,71.1,30.06,SW,235,0.0,3.0,83,0.00,,,0.00,387,Wunderground v.1.15,2013-08-22 18:26:00,
2013-08-22 14:31:00,78.2,72.3,30.06,West,269,1.0,4.0,82,0.00,,,0.00,346,Wunderground v.1.15,2013-08-22 18:31:00,
2013-08-22 14:36:00,78.9,72.9,30.06,West,264,1.0,4.0,82,0.00,,,0.00,1014,Wunderground v.1.15,2013-08-22 18:36:00,
2013-08-22 14:41:00,79.4,71.9,30.06,WNW,286,1.0,5.0,78,0.00,,,0.00,408,Wunderground v.1.15,2013-08-22 18:41:00,
2013-08-22 14:46:00,80.4,73.3,30.05,WNW,294,3.0,5.0,79,0.00,,,0.00,452,Wunderground v.1.15,2013-08-22 18:46:00,
2013-08-22 14:51:00,81.6,72.9,30.05,WNW,288,4.0,5.0,75,0.00,,,0.00,896,Wunderground v.1.15,2013-08-22 18:51:00,
2013-08-22 14:56:00,82.9,72.1,30.05,WNW,286,3.0,7.0,70,0.00,,,0.00,826,Wunderground v.1.15,2013-08-22 18:56:00,
2013-08-22 15:01:00,83.5,71.8,30.05,NW,313,4.0,9.0,68,0.00,,,0.00,802,Wunderground v.1.15,2013-08-22 19:01:00,
2013-08-22 15:06:00,84.4,72.2,30.05,North,350,2.0,9.0,67,0.00,,,0.00,796,Wunderground v.1.15,2013-08-22 19:06:00,
2013-08-22 15:11:00,85.0,71.5,30.05,West,277,4.0,7.0,64,0.00,,,0.00,809,Wunderground v.1.15,2013-08-22 19:11:00,
2013-08-22 15:16:00,85.6,72.5,30.05,NW,306,5.0,7.0,65,0.00,,,0.00,784,Wunderground v.1.15,2013-08-22 19:16:00,
2013-08-22 15:21:00,85.8,71.7,30.05,NW,316,5.0,6.0,63,0.00,,,0.00,765,Wunderground v.1.15,2013-08-22 19:21:00,
2013-08-22 15:26:00,86.3,70.8,30.04,WSW,247,8.0,8.0,60,0.00,,,0.00,766,Wunderground v.1.15,2013-08-22 19:26:00,
2013-08-22 15:31:00,86.8,71.7,30.04,WNW,292,5.0,8.0,61,0.00,,,0.00,751,Wunderground v.1.15,2013-08-22 19:31:00,
2013-08-22 15:36:00,86.8,71.2,30.04,NW,305,3.0,9.0,60,0.00,,,0.00,733,Wunderground v.1.15,2013-08-22 19:36:00,
2013-08-22 15:41:00,86.5,70.5,30.03,WNW,302,4.0,8.0,59,0.00,,,0.00,728,Wunderground v.1.15,2013-08-22 19:41:00,
2013-08-22 15:46:00,86.6,71.1,30.03,NW,305,3.0,8.0,60,0.00,,,0.00,729,Wunderground v.1.15,2013-08-22 19:46:00,
2013-08-22 15:51:00,88.0,71.9,30.03,WNW,296,4.0,8.0,59,0.00,,,0.00,752,Wunderground v.1.15,2013-08-22 19:51:00,
2013-08-22 15:56:00,87.7,71.1,30.03,NNW,327,1.0,9.0,58,0.00,,,0.00,729,Wunderground v.1.15,2013-08-22 19:56:00,
2013-08-22 16:01:00,87.8,71.7,30.02,NW,307,7.0,7.0,59,0.00,,,0.00,271,Wunderground v.1.15,2013-08-22 20:01:00,
2013-08-22 16:06:00,87.3,71.7,30.02,WNW,299,5.0,8.0,60,0.00,,,0.00,585,Wunderground v.1.15,2013-08-22 20:06:00,
2013-08-22 16:11:00,86.7,71.6,30.01,North,355,0.0,7.0,61,0.00,,,0.00,656,Wunderground v.1.15,2013-08-22 20:11:00,
2013-08-22 16:16:00,87.3,70.7,30.01,NW,310,3.0,8.0,58,0.00,,,0.00,663,Wunderground v.1.15,2013-08-22 20:16:00,
2013-08-22 16:21:00,87.5,71.4,30.01,West,280,4.0,8.0,59,0.00,,,0.00,654,Wunderground v.1.15,2013-08-22 20:21:00,
2013-08-22 16:26:00,87.6,71.0,30.01,West,261,4.0,11.0,58,0.00,,,0.00,633,Wunderground v.1.15,2013-08-22 20:26:00,
2013-08-22 16:31:00,88.1,71.5,30.01,West,277,9.0,10.0,58,0.00,,,0.00,584,Wunderground v.1.15,2013-08-22 20:31:00,
2013-08-22 16:36:00,87.6,71.0,30.01,WNW,302,8.0,10.0,58,0.00,,,0.00,580,Wunderground v.1.15,2013-08-22 20:36:00,
2013-08-22 16:41:00,87.1,70.5,30.01,WNW,282,6.0,10.0,58,0.00,,,0.00,554,Wunderground v.1.15,2013-08-22 20:41:00,
2013-08-22 16:46:00,87.0,70.9,30.01,WNW,294,6.0,10.0,59,0.00,,,0.00,571,Wunderground v.1.15,2013-08-22 20:46:00,
2013-08-22 16:51:00,87.2,70.6,30.01,West,268,8.0,9.0,58,0.00,,,0.00,533,Wunderground v.1.15,2013-08-22 20:51:00,
2013-08-22 16:56:00,87.1,70.0,30.01,West,275,7.0,10.0,57,0.00,,,0.00,504,Wunderground v.1.15,2013-08-22 20:56:00,
2013-08-22 17:01:00,86.8,69.2,30.01,West,267,5.0,10.0,56,0.00,,,0.00,510,Wunderground v.1.15,2013-08-22 21:01:00,
2013-08-22 17:06:00,86.5,69.5,30.00,WNW,287,5.0,10.0,57,0.00,,,0.00,497,Wunderground v.1.15,2013-08-22 21:06:00,
2013-08-22 17:11:00,86.8,69.2,30.00,WNW,283,5.0,10.0,56,0.00,,,0.00,322,Wunderground v.1.15,2013-08-22 21:11:00,
2013-08-22 17:16:00,86.3,69.3,30.00,West,278,5.0,10.0,57,0.00,,,0.00,473,Wunderground v.1.15,2013-08-22 21:16:00,
2013-08-22 17:21:00,86.2,69.7,30.01,WNW,300,7.0,8.0,58,0.00,,,0.00,468,Wunderground v.1.15,2013-08-22 21:21:00,
2013-08-22 17:27:00,86.4,69.9,30.00,WNW,292,4.0,10.0,58,0.00,,,0.00,436,Wunderground v.1.15,2013-08-22 21:27:00,
2013-08-22 17:32:00,86.5,70.0,30.00,West,260,2.0,7.0,58,0.00,,,0.00,396,Wunderground v.1.15,2013-08-22 21:32:00,
2013-08-22 17:37:00,86.8,70.8,30.00,WNW,297,7.0,7.0,59,0.00,,,0.00,396,Wunderground v.1.15,2013-08-22 21:37:00,
2013-08-22 17:42:00,86.6,70.6,30.00,WSW,250,4.0,8.0,59,0.00,,,0.00,401,Wunderground v.1.15,2013-08-22 21:42:00,
2013-08-22 17:47:00,86.9,70.3,30.00,WSW,240,3.0,8.0,58,0.00,,,0.00,360,Wunderground v.1.15,2013-08-22 21:47:00,
2013-08-22 17:52:00,87.1,71.0,30.00,WNW,298,1.0,5.0,59,0.00,,,0.00,369,Wunderground v.1.15,2013-08-22 21:52:00,
2013-08-22 17:57:00,86.8,70.8,29.99,WNW,291,0.0,6.0,59,0.00,,,0.00,320,Wunderground v.1.15,2013-08-22 21:57:00,
2013-08-22 18:02:00,86.7,70.2,29.99,WNW,297,2.0,5.0,58,0.00,,,0.00,302,Wunderground v.1.15,2013-08-22 22:02:00,
2013-08-22 18:07:00,86.4,70.4,30.00,NW,319,4.0,6.0,59,0.00,,,0.00,332,Wunderground v.1.15,2013-08-22 22:07:00,
2013-08-22 18:12:00,86.3,70.3,30.00,WNW,296,3.0,6.0,59,0.00,,,0.00,302,Wunderground v.1.15,2013-08-22 22:12:00,
2013-08-22 18:17:00,86.3,70.3,30.00,NW,308,4.0,6.0,59,0.00,,,0.00,311,Wunderground v.1.15,2013-08-22 22:17:00,
2013-08-22 18:22:00,85.9,70.4,30.00,WNW,295,4.0,8.0,60,0.00,,,0.00,288,Wunderground v.1.15,2013-08-22 22:22:00,
2013-08-22 18:27:00,85.8,69.8,30.00,WNW,303,5.0,8.0,59,0.00,,,0.00,250,Wunderground v.1.15,2013-08-22 22:27:00,
2013-08-22 18:32:00,85.5,70.0,29.99,West,281,2.0,5.0,60,0.00,,,0.00,227,Wunderground v.1.15,2013-08-22 22:32:00,
2013-08-22 18:37:00,85.6,70.1,29.99,West,275,4.0,6.0,60,0.00,,,0.00,195,Wunderground v.1.15,2013-08-22 22:37:00,
2013-08-22 18:42:00,85.5,70.5,29.99,West,275,3.0,5.0,61,0.00,,,0.00,188,Wunderground v.1.15,2013-08-22 22:42:00,
2013-08-22 18:47:00,85.4,70.9,29.99,West,273,2.0,6.0,62,0.00,,,0.00,185,Wunderground v.1.15,2013-08-22 22:47:00,
2013-08-22 18:52:00,85.3,70.8,29.99,West,272,0.0,6.0,62,0.00,,,0.00,81,Wunderground v.1.15,2013-08-22 22:52:00,
2013-08-22 18:57:00,85.0,70.5,29.99,West,261,2.0,6.0,62,0.00,,,0.00,111,Wunderground v.1.15,2013-08-22 22:57:00,
2013-08-22 19:02:00,84.7,71.2,29.99,WSW,243,3.0,4.0,64,0.00,,,0.00,76,Wunderground v.1.15,2013-08-22 23:02:00,
2013-08-22 19:07:00,84.4,71.3,29.99,WSW,244,1.0,4.0,65,0.00,,,0.00,135,Wunderground v.1.15,2013-08-22 23:07:00,
2013-08-22 19:12:00,84.2,71.2,29.99,WNW,283,2.0,3.0,65,0.00,,,0.00,127,Wunderground v.1.15,2013-08-22 23:12:00,
2013-08-22 19:17:00,84.1,71.5,29.99,WNW,292,1.0,4.0,66,0.00,,,0.00,111,Wunderground v.1.15,2013-08-22 23:17:00,
2013-08-22 19:22:00,83.9,70.9,29.99,WNW,290,3.0,4.0,65,0.00,,,0.00,93,Wunderground v.1.15,2013-08-22 23:22:00,
2013-08-22 19:27:00,83.8,71.2,29.99,WNW,292,3.0,4.0,66,0.00,,,0.00,74,Wunderground v.1.15,2013-08-22 23:27:00,
2013-08-22 19:32:00,83.7,71.1,29.99,WNW,283,4.0,5.0,66,0.00,,,0.00,44,Wunderground v.1.15,2013-08-22 23:32:00,
2013-08-22 19:37:00,83.5,70.9,29.99,West,273,3.0,5.0,66,0.00,,,0.00,35,Wunderground v.1.15,2013-08-22 23:37:00,
2013-08-22 19:42:00,83.2,71.1,29.99,West,279,3.0,5.0,67,0.00,,,0.00,30,Wunderground v.1.15,2013-08-22 23:42:00,
2013-08-22 19:47:00,82.9,71.3,29.99,West,279,1.0,5.0,68,0.00,,,0.00,25,Wunderground v.1.15,2013-08-22 23:47:00,
2013-08-22 19:52:00,82.7,71.1,29.99,West,273,3.0,4.0,68,0.00,,,0.00,21,Wunderground v.1.15,2013-08-22 23:52:00,
2013-08-22 19:57:00,82.6,71.0,30.00,West,261,3.0,5.0,68,0.00,,,0.00,16,Wunderground v.1.15,2013-08-22 23:57:00,
2013-08-22 20:02:00,82.5,70.9,30.00,West,259,3.0,4.0,68,0.00,,,0.00,12,Wunderground v.1.15,2013-08-23 00:02:00,
2013-08-22 20:07:00,82.3,70.7,30.00,West,259,2.0,4.0,68,0.00,,,0.00,9,Wunderground v.1.15,2013-08-23 00:07:00,
2013-08-22 20:12:00,82.2,71.0,29.99,West,259,2.0,2.0,69,0.00,,,0.00,5,Wunderground v.1.15,2013-08-23 00:12:00,
2013-08-22 20:17:00,82.0,71.2,29.99,West,259,1.0,3.0,70,0.00,,,0.00,0,Wunderground v.1.15,2013-08-23 00:17:00,
2013-08-22 20:22:00,81.4,71.5,30.00,NE,39,5.0,6.0,72,0.00,,,0.00,0,Wunderground v.1.15,2013-08-23 00:22:00,
2013-08-22 20:27:00,80.6,71.9,30.00,NE,51,2.0,7.0,75,0.00,,,0.00,0,Wunderground v.1.15,2013-08-23 00:27:00,
2013-08-22 20:32:00,80.2,71.2,30.00,NE,43,5.0,7.0,74,0.00,,,0.00,0,Wunderground v.1.15,2013-08-23 00:32:00,
2013-08-22 20:37:00,80.1,71.1,30.00,NE,52,0.0,7.0,74,0.00,,,0.00,0,Wunderground v.1.15,2013-08-23 00:37:00,
2013-08-22 20:42:00,80.0,72.1,30.00,NNW,329,0.0,3.0,77,0.00,,,0.00,0,Wunderground v.1.15,2013-08-23 00:42:00,
2013-08-22 20:47:00,79.5,72.4,30.00,North,360,2.0,3.0,79,0.00,,,0.00,0,Wunderground v.1.15,2013-08-23 00:47:00,
2013-08-22 20:52:00,79.2,70.2,30.00,ENE,66,1.0,3.0,74,0.00,,,0.00,0,Wunderground v.1.15,2013-08-23 00:52:00,
2013-08-22 20:57:00,79.3,69.9,30.00,ENE,66,1.0,3.0,73,0.00,,,0.00,0,Wunderground v.1.15,2013-08-23 00:57:00,
2013-08-22 21:02:00,79.1,69.7,30.00,ENE,66,0.0,3.0,73,0.00,,,0.00,0,Wunderground v.1.15,2013-08-23 01:02:00,
2013-08-22 21:07:00,78.9,69.5,30.00,ENE,66,0.0,3.0,73,0.00,,,0.00,0,Wunderground v.1.15,2013-08-23 01:07:00,
2013-08-22 21:12:00,78.7,69.3,30.00,ENE,66,0.0,1.0,73,0.00,,,0.00,0,Wunderground v.1.15,2013-08-23 01:12:00,
2013-08-22 21:17:00,78.7,69.3,30.00,ENE,66,0.0,1.0,73,0.00,,,0.00,0,Wunderground v.1.15,2013-08-23 01:17:00,
2013-08-22 21:22:00,78.7,69.7,30.00,ENE,66,0.0,0.0,74,0.00,,,0.00,0,Wunderground v.1.15,2013-08-23 01:22:00,
2013-08-22 21:27:00,78.4,69.4,30.00,ENE,66,0.0,0.0,74,0.00,,,0.00,0,Wunderground v.1.15,2013-08-23 01:27:00,
2013-08-22 21:32:00,78.1,69.5,30.00,SSE,157,2.0,3.0,75,0.00,,,0.00,0,Wunderground v.1.15,2013-08-23 01:32:00,
2013-08-22 21:37:00,77.6,69.8,29.99,SW,234,5.0,5.0,77,0.00,,,0.00,0,Wunderground v.1.15,2013-08-23 01:37:00,
2013-08-22 21:42:00,77.5,70.5,29.99,WSW,238,2.0,9.0,79,0.00,,,0.00,0,Wunderground v.1.15,2013-08-23 01:42:00,
2013-08-22 21:47:00,77.4,70.4,29.99,SW,225,1.0,9.0,79,0.00,,,0.00,0,Wunderground v.1.15,2013-08-23 01:47:00,
2013-08-22 21:52:00,77.3,70.3,29.99,WSW,241,4.0,4.0,79,0.00,,,0.00,0,Wunderground v.1.15,2013-08-23 01:52:00,
2013-08-22 21:57:00,77.2,70.2,29.99,SW,231,3.0,5.0,79,0.00,,,0.00,0,Wunderground v.1.15,2013-08-23 01:57:00,
2013-08-22 22:02:00,77.1,70.1,30.00,SW,236,0.0,3.0,79,0.00,,,0.00,0,Wunderground v.1.15,2013-08-23 02:02:00,
2013-08-22 22:07:00,77.1,70.1,30.00,SW,236,0.0,3.0,79,0.00,,,0.00,0,Wunderground v.1.15,2013-08-23 02:07:00,
2013-08-22 22:12:00,77.0,70.4,29.99,SW,236,0.0,2.0,80,0.00,,,0.00,0,Wunderground v.1.15,2013-08-23 02:12:00,
2013-08-22 22:17:00,77.0,70.4,29.99,SW,236,0.0,2.0,80,0.00,,,0.00,0,Wunderground v.1.15,2013-08-23 02:17:00,
2013-08-22 22:22:00,77.0,70.4,30.00,SW,236,0.0,0.0,80,0.00,,,0.00,0,Wunderground v.1.15,2013-08-23 02:22:00,
2013-08-22 22:27:00,76.9,70.6,30.00,SW,236,0.0,0.0,81,0.00,,,0.00,0,Wunderground v.1.15,2013-08-23 02:27:00,
2013-08-22 22:32:00,76.6,70.3,30.00,SW,236,1.0,2.0,81,0.00,,,0.00,0,Wunderground v.1.15,2013-08-23 02:32:00,
2013-08-22 22:37:00,76.3,70.4,30.00,SW,236,0.0,2.0,82,0.00,,,0.00,0,Wunderground v.1.15,2013-08-23 02:37:00,
2013-08-22 22:42:00,76.2,70.3,30.00,SW,236,0.0,1.0,82,0.00,,,0.00,0,Wunderground v.1.15,2013-08-23 02:42:00,
2013-08-22 22:47:00,76.2,70.3,30.00,SW,236,0.0,1.0,82,0.00,,,0.00,0,Wunderground v.1.15,2013-08-23 02:47:00,
2013-08-22 22:52:00,76.0,70.1,30.00,SW,236,0.0,0.0,82,0.00,,,0.00,0,Wunderground v.1.15,2013-08-23 02:52:00,
2013-08-22 22:57:00,75.6,70.1,30.00,SW,236,0.0,1.0,83,0.00,,,0.00,0,Wunderground v.1.15,2013-08-23 02:57:00,
2013-08-22 23:02:00,75.5,70.3,30.00,SW,236,0.0,0.0,84,0.00,,,0.00,0,Wunderground v.1.15,2013-08-23 03:02:00,
2013-08-22 23:07:00,75.4,70.2,30.00,SW,236,0.0,0.0,84,0.00,,,0.00,0,Wunderground v.1.15,2013-08-23 03:07:00,
2013-08-22 23:12:00,75.2,70.0,30.00,SW,236,0.0,0.0,84,0.00,,,0.00,0,Wunderground v.1.15,2013-08-23 03:12:00,
2013-08-22 23:17:00,75.1,69.9,30.00,SW,236,0.0,0.0,84,0.00,,,0.00,0,Wunderground v.1.15,2013-08-23 03:17:00,
2013-08-22 23:22:00,75.1,69.6,30.00,SW,236,0.0,0.0,83,0.00,,,0.00,0,Wunderground v.1.15,2013-08-23 03:22:00,
2013-08-22 23:27:00,75.1,69.6,30.00,SW,236,0.0,0.0,83,0.00,,,0.00,0,Wunderground v.1.15,2013-08-23 03:27:00,
2013-08-22 23:32:00,74.9,69.7,30.00,SW,236,0.0,0.0,84,0.00,,,0.00,0,Wunderground v.1.15,2013-08-23 03:32:00,
2013-08-22 23:37:00,74.6,69.4,30.00,SW,236,0.0,2.0,84,0.00,,,0.00,0,Wunderground v.1.15,2013-08-23 03:37:00,
2013-08-22 23:42:00,74.7,69.5,30.00,SW,236,0.0,0.0,84,0.00,,,0.00,0,Wunderground v.1.15,2013-08-23 03:42:00,
2013-08-22 23:47:00,74.7,69.9,30.00,SW,236,0.0,0.0,85,0.00,,,0.00,0,Wunderground v.1.15,2013-08-23 03:47:00,
2013-08-22 23:52:00,74.5,69.7,30.00,SW,236,0.0,0.0,85,0.00,,,0.00,0,Wunderground v.1.15,2013-08-23 03:52:00,
2013-08-22 23:57:00,74.2,69.7,30.00,SW,236,0.0,0.0,86,0.00,,,0.00,0,Wunderground v.1.15,2013-08-23 03:57:00,